Private Wetterstation Wechselburg
Wetterdaten: Sonntag, 26.02.2012
Datum Zeit Temp. +2m Bodentemp. Temp.+5cm Temp. Wind Windchill X Diff Temp. Feuchte +2m Feuchte +5cm Sonnenschein Luftdruck Regen Wind Richtung Richtung Sonnenschein UV Taupunkt Windchill Windben
26.02.2012 00:04 4,8 C 6,7 C 4,7 C 4,4 C 2,9 C 0,0 C 77 % 80 % 0 % 1020,2 hPa 0,0 l/m 9,5 km/h (2 Bft) W-NW 292 0 min 0,0 UV-I 1,1 C 0,3 C 18,3 km/h (3 Bft)
26.02.2012 00:09 4,8 C 6,7 C 4,7 C 4,4 C 3,0 C 0,0 C 77 % 80 % 0 % 1020,2 hPa 0,0 l/m 9,0 km/h (2 Bft) W-SW 247 0 min 0,0 UV-I 1,1 C 0,5 C 11,7 km/h (2 Bft)
26.02.2012 00:14 4,8 C 6,7 C 4,6 C 4,4 C 3,1 C 0,0 C 77 % 80 % 0 % 1020,4 hPa 0,0 l/m 8,2 km/h (2 Bft) W-SW 247 0 min 0,0 UV-I 1,1 C 0,8 C 10,6 km/h (2 Bft)
26.02.2012 00:19 4,8 C 6,7 C 4,7 C 4,3 C 3,2 C 0,0 C 78 % 81 % 0 % 1020,4 hPa 0,0 l/m 6,6 km/h (2 Bft) W-SW 247 0 min 0,0 UV-I 1,3 C 1,4 C 3,7 km/h (1 Bft)
26.02.2012 00:24 4,7 C 6,9 C 4,4 C 4,3 C 3,5 C 0,0 C 80 % 83 % 0 % 1020,4 hPa 0,0 l/m 4,7 km/h (1 Bft) SO 135 0 min 0,0 UV-I 1,6 C 2,5 C 3,2 km/h (1 Bft)
26.02.2012 00:29 4,4 C 7,0 C 4,2 C 4,2 C 3,7 C 0,0 C 80 % 83 % 0 % 1020,4 hPa 0,0 l/m 3,7 km/h (1 Bft) W 270 0 min 0,0 UV-I 1,3 C 3,7 C 2,6 km/h (1 Bft)
26.02.2012 00:34 4,4 C 7,0 C 3,9 C 4,2 C 3,7 C 0,0 C 81 % 86 % 0 % 1020,5 hPa 0,0 l/m 3,2 km/h (1 Bft) W-SW 247 0 min 0,0 UV-I 1,4 C 3,7 C 3,7 km/h (1 Bft)
26.02.2012 00:39 4,3 C 7,2 C 3,9 C 4,1 C 3,6 C 0,0 C 81 % 87 % 0 % 1020,5 hPa 0,0 l/m 1,8 km/h (1 Bft) W-SW 247 0 min 0,0 UV-I 1,3 C 3,6 C 0,0 km/h (0 Bft)
26.02.2012 00:44 4,1 C 7,2 C 3,6 C 3,9 C 3,5 C 0,0 C 81 % 88 % 0 % 1020,5 hPa 0,0 l/m 0,5 km/h (0 Bft) W-SW 247 0 min 0,0 UV-I 1,1 C 3,5 C 0,0 km/h (0 Bft)
26.02.2012 00:49 4,0 C 7,2 C 3,6 C 3,8 C 3,4 C 0,0 C 82 % 89 % 0 % 1020,5 hPa 0,0 l/m 0,0 km/h (0 Bft) NW 315 0 min 0,0 UV-I 1,2 C 3,4 C 0,0 km/h (0 Bft)
26.02.2012 00:54 4,0 C 7,2 C 3,5 C 3,8 C 3,3 C 0,0 C 82 % 90 % 0 % 1020,5 hPa 0,0 l/m 0,0 km/h (0 Bft) W-SW 247 0 min 0,0 UV-I 1,2 C 3,3 C 0,0 km/h (0 Bft)
26.02.2012 00:59 3,9 C 7,2 C 3,4 C 3,7 C 3,3 C 0,0 C 83 % 90 % 0 % 1020,5 hPa 0,7 l/m 0,3 km/h (0 Bft) W-SW 247 0 min 0,0 UV-I 1,3 C 3,3 C 2,6 km/h (1 Bft)
26.02.2012 01:04 3,9 C 7,1 C 3,5 C 3,6 C 3,1 C 0,0 C 84 % 90 % 0 % 1020,5 hPa 0,0 l/m 3,2 km/h (1 Bft) W-SW 247 0 min 0,0 UV-I 1,4 C 3,1 C 9,0 km/h (2 Bft)
26.02.2012 01:09 3,9 C 7,1 C 3,4 C 3,3 C 2,2 C 0,0 C 84 % 90 % 0 % 1020,5 hPa 0,0 l/m 5,3 km/h (1 Bft) W-SW 247 0 min 0,0 UV-I 1,4 C 0,8 C 6,4 km/h (2 Bft)
26.02.2012 01:14 4,0 C 7,0 C 3,5 C 3,4 C 2,1 C 0,0 C 84 % 91 % 0 % 1020,2 hPa 0,0 l/m 5,8 km/h (2 Bft) W-SW 247 0 min 0,0 UV-I 1,5 C 0,5 C 5,8 km/h (2 Bft)
26.02.2012 01:19 4,0 C 6,9 C 3,6 C 3,2 C 1,7 C 0,0 C 83 % 90 % 0 % 1020,2 hPa 0,0 l/m 7,6 km/h (2 Bft) SW 225 0 min 0,0 UV-I 1,4 C -0,6 C 11,4 km/h (2 Bft)
26.02.2012 01:24 4,2 C 6,9 C 3,6 C 3,6 C 1,5 C 0,0 C 83 % 90 % 0 % 1020,2 hPa 0,0 l/m 9,3 km/h (2 Bft) W-SW 247 0 min 0,0 UV-I 1,6 C -1,3 C 11,4 km/h (2 Bft)
26.02.2012 01:29 4,3 C 6,9 C 3,6 C 3,7 C 1,7 C 0,0 C 83 % 90 % 0 % 1020,2 hPa 0,0 l/m 8,7 km/h (2 Bft) W-SW 247 0 min 0,0 UV-I 1,7 C -0,9 C 9,8 km/h (2 Bft)
26.02.2012 01:34 4,1 C 6,9 C 3,6 C 3,6 C 1,8 C 0,0 C 83 % 90 % 0 % 1020,1 hPa 0,0 l/m 8,2 km/h (2 Bft) W-SW 247 0 min 0,0 UV-I 1,5 C -0,7 C 11,1 km/h (2 Bft)
26.02.2012 01:39 4,3 C 6,9 C 3,7 C 3,5 C 1,9 C 0,0 C 82 % 90 % 0 % 1020,1 hPa 0,0 l/m 7,6 km/h (2 Bft) SW 225 0 min 0,0 UV-I 1,5 C -0,4 C 9,3 km/h (2 Bft)
26.02.2012 01:44 4,3 C 6,7 C 3,6 C 3,5 C 1,9 C 0,0 C 82 % 90 % 0 % 1020,1 hPa 0,0 l/m 7,1 km/h (2 Bft) W-SW 247 0 min 0,0 UV-I 1,5 C -0,2 C 5,3 km/h (1 Bft)
26.02.2012 01:49 4,3 C 6,7 C 3,6 C 3,6 C 2,2 C 0,0 C 82 % 90 % 0 % 1020,1 hPa 0,0 l/m 6,4 km/h (2 Bft) W-SW 247 0 min 0,0 UV-I 1,5 C 0,4 C 10,6 km/h (2 Bft)
26.02.2012 01:54 4,3 C 6,7 C 3,7 C 3,5 C 2,0 C 0,0 C 81 % 90 % 0 % 1020,4 hPa 0,0 l/m 7,4 km/h (2 Bft) W-SW 247 0 min 0,0 UV-I 1,3 C -0,2 C 7,4 km/h (2 Bft)
26.02.2012 01:59 4,3 C 6,8 C 3,6 C 3,5 C 1,9 C 0,0 C 81 % 90 % 0 % 1020,4 hPa 0,0 l/m 7,1 km/h (2 Bft) W-SW 247 0 min 0,0 UV-I 1,3 C -0,2 C 5,0 km/h (1 Bft)
26.02.2012 02:04 4,1 C 6,8 C 3,6 C 3,5 C 2,4 C 0,0 C 82 % 90 % 0 % 1020,4 hPa 0,0 l/m 5,5 km/h (1 Bft) SW 225 0 min 0,0 UV-I 1,3 C 0,9 C 4,5 km/h (1 Bft)
26.02.2012 02:09 4,1 C 6,8 C 3,6 C 3,6 C 2,5 C 0,0 C 82 % 90 % 0 % 1020,4 hPa 0,0 l/m 5,5 km/h (1 Bft) NW 315 0 min 0,0 UV-I 1,3 C 1,0 C 5,5 km/h (1 Bft)
26.02.2012 02:14 4,1 C 6,7 C 3,7 C 3,6 C 2,7 C 0,0 C 82 % 90 % 0 % 1019,9 hPa 0,0 l/m 5,3 km/h (1 Bft) W 270 0 min 0,0 UV-I 1,3 C 1,3 C 8,5 km/h (2 Bft)
26.02.2012 02:19 4,1 C 6,7 C 3,7 C 3,6 C 2,6 C 0,0 C 82 % 90 % 0 % 1019,9 hPa 0,0 l/m 5,8 km/h (2 Bft) SW 225 0 min 0,0 UV-I 1,3 C 1,0 C 8,0 km/h (2 Bft)
26.02.2012 02:24 4,3 C 6,8 C 3,9 C 3,6 C 2,2 C 0,0 C 82 % 90 % 0 % 1019,9 hPa 0,0 l/m 7,4 km/h (2 Bft) W-SW 247 0 min 0,0 UV-I 1,5 C 0,0 C 15,0 km/h (3 Bft)
26.02.2012 02:29 4,3 C 6,7 C 3,9 C 3,8 C 2,1 C 0,0 C 82 % 89 % 0 % 1019,9 hPa 0,0 l/m 8,5 km/h (2 Bft) W-SW 247 0 min 0,0 UV-I 1,5 C -0,4 C 14,3 km/h (3 Bft)
26.02.2012 02:34 4,2 C 6,7 C 3,9 C 3,5 C 2,1 C 0,0 C 81 % 89 % 0 % 1020,1 hPa 0,0 l/m 8,5 km/h (2 Bft) W-SW 247 0 min 0,0 UV-I 1,2 C -0,4 C 10,5 km/h (2 Bft)
26.02.2012 02:39 4,3 C 6,7 C 3,9 C 3,8 C 1,9 C 0,0 C 81 % 89 % 0 % 1020,1 hPa 0,0 l/m 9,7 km/h (2 Bft) W-SW 247 0 min 0,0 UV-I 1,3 C -1,0 C 17,5 km/h (3 Bft)
26.02.2012 02:44 4,3 C 6,7 C 4,0 C 3,8 C 1,8 C 0,0 C 81 % 88 % 0 % 1020,1 hPa 0,0 l/m 10,5 km/h (2 Bft) W 270 0 min 0,0 UV-I 1,3 C -1,3 C 16,3 km/h (3 Bft)
26.02.2012 02:49 4,3 C 6,7 C 4,0 C 3,8 C 1,9 C 0,0 C 81 % 89 % 0 % 1020,1 hPa 0,0 l/m 10,1 km/h (2 Bft) W-SW 247 0 min 0,0 UV-I 1,3 C -1,1 C 12,9 km/h (3 Bft)
26.02.2012 02:54 4,4 C 6,7 C 4,0 C 3,9 C 2,0 C 0,0 C 81 % 88 % 0 % 1019,6 hPa 0,0 l/m 9,7 km/h (2 Bft) W-SW 247 0 min 0,0 UV-I 1,4 C -0,9 C 12,6 km/h (3 Bft)
26.02.2012 02:59 4,4 C 6,7 C 4,0 C 3,9 C 2,3 C 0,0 C 81 % 88 % 0 % 1019,6 hPa 0,0 l/m 8,5 km/h (2 Bft) W-SW 247 0 min 0,0 UV-I 1,4 C -0,2 C 7,6 km/h (2 Bft)
26.02.2012 03:04 4,3 C 6,7 C 4,0 C 3,6 C 2,3 C 0,0 C 81 % 88 % 0 % 1019,6 hPa 0,0 l/m 8,2 km/h (2 Bft) SW 225 0 min 0,0 UV-I 1,3 C -0,1 C 7,9 km/h (2 Bft)
26.02.2012 03:09 4,3 C 6,7 C 3,9 C 3,6 C 2,3 C 0,0 C 81 % 88 % 0 % 1019,6 hPa 0,0 l/m 7,9 km/h (2 Bft) W-SW 247 0 min 0,0 UV-I 1,3 C -0,0 C 6,8 km/h (2 Bft)
26.02.2012 03:14 4,3 C 6,7 C 3,9 C 3,6 C 2,3 C 0,0 C 81 % 88 % 0 % 1019,6 hPa 0,0 l/m 7,7 km/h (2 Bft) W-SW 247 0 min 0,0 UV-I 1,3 C 0,1 C 10,6 km/h (2 Bft)
26.02.2012 03:19 4,3 C 6,7 C 3,9 C 3,6 C 2,3 C 0,0 C 81 % 89 % 0 % 1019,6 hPa 0,0 l/m 7,9 km/h (2 Bft) SW 225 0 min 0,0 UV-I 1,3 C -0,0 C 11,3 km/h (2 Bft)
26.02.2012 03:24 4,3 C 6,7 C 4,0 C 3,7 C 2,4 C 0,0 C 81 % 89 % 0 % 1019,6 hPa 0,0 l/m 7,6 km/h (2 Bft) W 270 0 min 0,0 UV-I 1,3 C 0,2 C 10,1 km/h (2 Bft)
26.02.2012 03:29 4,3 C 6,7 C 3,9 C 3,6 C 2,3 C 0,0 C 82 % 89 % 0 % 1019,6 hPa 0,0 l/m 7,6 km/h (2 Bft) W-SW 247 0 min 0,0 UV-I 1,5 C 0,1 C 6,3 km/h (2 Bft)
26.02.2012 03:34 4,2 C 6,7 C 3,9 C 3,6 C 2,4 C 0,0 C 82 % 89 % 0 % 1019,8 hPa 0,0 l/m 6,9 km/h (2 Bft) W-SW 247 0 min 0,0 UV-I 1,4 C 0,4 C 8,0 km/h (2 Bft)
26.02.2012 03:39 4,2 C 6,7 C 3,8 C 3,5 C 2,2 C 0,0 C 82 % 88 % 0 % 1019,8 hPa 0,0 l/m 7,1 km/h (2 Bft) W-SW 247 0 min 0,0 UV-I 1,4 C 0,1 C 6,3 km/h (2 Bft)
26.02.2012 03:44 4,1 C 6,7 C 3,9 C 3,5 C 2,2 C 0,0 C 82 % 88 % 0 % 1019,8 hPa 0,0 l/m 7,6 km/h (2 Bft) SW 225 0 min 0,0 UV-I 1,3 C -0,0 C 7,1 km/h (2 Bft)
26.02.2012 03:49 4,1 C 6,7 C 3,8 C 3,5 C 2,2 C 0,0 C 82 % 88 % 0 % 1019,8 hPa 0,0 l/m 7,4 km/h (2 Bft) W-SW 247 0 min 0,0 UV-I 1,3 C 0,0 C 9,0 km/h (2 Bft)
26.02.2012 03:54 4,1 C 6,7 C 3,8 C 3,7 C 2,1 C 0,0 C 82 % 88 % 0 % 1019,1 hPa 0,0 l/m 7,7 km/h (2 Bft) W-SW 247 0 min 0,0 UV-I 1,3 C -0,2 C 10,6 km/h (2 Bft)
26.02.2012 03:59 4,1 C 6,8 C 3,9 C 3,5 C 2,2 C 0,0 C 82 % 88 % 0 % 1019,1 hPa 0,0 l/m 7,4 km/h (2 Bft) W-SW 247 0 min 0,0 UV-I 1,3 C 0,0 C 6,3 km/h (2 Bft)
26.02.2012 04:04 4,1 C 6,8 C 3,8 C 3,7 C 2,1 C 0,0 C 82 % 88 % 0 % 1019,1 hPa 0,0 l/m 7,7 km/h (2 Bft) W-SW 247 0 min 0,0 UV-I 1,3 C -0,2 C 8,7 km/h (2 Bft)
26.02.2012 04:09 4,1 C 6,8 C 3,9 C 3,5 C 2,2 C 0,0 C 82 % 88 % 0 % 1019,1 hPa 0,0 l/m 7,6 km/h (2 Bft) S-SW 202 0 min 0,0 UV-I 1,3 C -0,0 C 13,4 km/h (3 Bft)
26.02.2012 04:14 4,1 C 6,8 C 3,9 C 3,5 C 2,4 C 0,0 C 82 % 88 % 0 % 1019,1 hPa 0,0 l/m 6,9 km/h (2 Bft) W-SW 247 0 min 0,0 UV-I 1,3 C 0,4 C 8,9 km/h (2 Bft)
26.02.2012 04:19 4,0 C 6,8 C 3,9 C 3,4 C 2,3 C 0,0 C 82 % 88 % 0 % 1019,1 hPa 0,0 l/m 7,2 km/h (2 Bft) W-SW 247 0 min 0,0 UV-I 1,2 C 0,2 C 5,5 km/h (1 Bft)
26.02.2012 04:24 4,0 C 6,8 C 3,9 C 3,4 C 2,3 C 0,0 C 82 % 88 % 0 % 1019,1 hPa 0,0 l/m 7,2 km/h (2 Bft) SW 225 0 min 0,0 UV-I 1,2 C 0,2 C 9,7 km/h (2 Bft)
26.02.2012 04:29 4,0 C 6,8 C 3,8 C 3,4 C 2,3 C 0,0 C 82 % 88 % 0 % 1019,1 hPa 0,0 l/m 7,2 km/h (2 Bft) W-SW 247 0 min 0,0 UV-I 1,2 C 0,2 C 8,7 km/h (2 Bft)
26.02.2012 04:34 4,0 C 6,8 C 3,8 C 3,6 C 2,1 C 0,0 C 82 % 88 % 0 % 1019,1 hPa 0,0 l/m 8,2 km/h (2 Bft) N-NW 337 0 min 0,0 UV-I 1,2 C -0,3 C 9,5 km/h (2 Bft)
26.02.2012 04:39 4,1 C 6,8 C 3,9 C 3,6 C 1,9 C 0,0 C 83 % 88 % 0 % 1019,1 hPa 0,0 l/m 8,5 km/h (2 Bft) W-SW 247 0 min 0,0 UV-I 1,5 C -0,7 C 10,5 km/h (2 Bft)
26.02.2012 04:44 4,0 C 6,8 C 3,9 C 3,5 C 2,0 C 0,0 C 83 % 88 % 0 % 1019,1 hPa 0,0 l/m 7,7 km/h (2 Bft) W-SW 247 0 min 0,0 UV-I 1,4 C -0,3 C 7,7 km/h (2 Bft)
26.02.2012 04:49 4,0 C 6,8 C 3,8 C 3,4 C 2,2 C 0,0 C 83 % 88 % 0 % 1019,1 hPa 0,0 l/m 7,2 km/h (2 Bft) SW 225 0 min 0,0 UV-I 1,4 C 0,1 C 9,5 km/h (2 Bft)
26.02.2012 04:54 4,0 C 6,9 C 3,8 C 3,4 C 2,1 C 0,0 C 84 % 88 % 0 % 1019,4 hPa 0,0 l/m 7,4 km/h (2 Bft) W-SW 247 0 min 0,0 UV-I 1,5 C -0,1 C 9,7 km/h (2 Bft)
26.02.2012 04:59 3,9 C 6,9 C 3,7 C 3,3 C 2,1 C 0,0 C 84 % 88 % 0 % 1019,4 hPa 0,0 l/m 7,4 km/h (2 Bft) W-SW 247 0 min 0,0 UV-I 1,4 C -0,1 C 11,6 km/h (2 Bft)
26.02.2012 05:04 3,8 C 6,9 C 3,7 C 3,2 C 2,0 C 0,0 C 84 % 88 % 0 % 1019,4 hPa 0,0 l/m 7,2 km/h (2 Bft) W-SW 247 0 min 0,0 UV-I 1,4 C -0,1 C 8,0 km/h (2 Bft)
26.02.2012 05:09 3,9 C 6,8 C 3,7 C 3,2 C 1,8 C 0,0 C 83 % 88 % 0 % 1019,4 hPa 0,0 l/m 7,4 km/h (2 Bft) W-SW 247 0 min 0,0 UV-I 1,3 C -0,4 C 9,7 km/h (2 Bft)
26.02.2012 05:14 3,9 C 6,8 C 3,7 C 3,2 C 1,8 C 0,0 C 83 % 88 % 0 % 1018,9 hPa 0,0 l/m 7,9 km/h (2 Bft) W-SW 247 0 min 0,0 UV-I 1,3 C -0,6 C 16,4 km/h (3 Bft)
26.02.2012 05:19 3,9 C 6,8 C 3,7 C 3,2 C 1,8 C 0,0 C 83 % 88 % 0 % 1018,9 hPa 0,0 l/m 8,7 km/h (2 Bft) W 270 0 min 0,0 UV-I 1,3 C -0,8 C 10,0 km/h (2 Bft)
26.02.2012 05:24 4,0 C 6,8 C 3,9 C 3,5 C 1,7 C 0,0 C 83 % 88 % 0 % 1018,9 hPa 0,0 l/m 8,9 km/h (2 Bft) SW 225 0 min 0,0 UV-I 1,4 C -1,0 C 10,3 km/h (2 Bft)
26.02.2012 05:29 4,0 C 6,7 C 3,8 C 3,2 C 1,7 C 0,0 C 83 % 87 % 0 % 1018,9 hPa 0,0 l/m 9,2 km/h (2 Bft) W-SW 247 0 min 0,0 UV-I 1,4 C -1,1 C 13,0 km/h (3 Bft)
26.02.2012 05:34 4,0 C 6,7 C 3,9 C 3,5 C 1,8 C 0,0 C 82 % 87 % 0 % 1019,8 hPa 0,0 l/m 9,0 km/h (2 Bft) SO 135 0 min 0,0 UV-I 1,2 C -0,9 C 8,9 km/h (2 Bft)
26.02.2012 05:39 4,0 C 6,7 C 3,9 C 3,5 C 2,0 C 0,0 C 82 % 87 % 0 % 1019,8 hPa 0,0 l/m 8,4 km/h (2 Bft) W-SW 247 0 min 0,0 UV-I 1,2 C -0,5 C 8,5 km/h (2 Bft)
26.02.2012 05:44 4,0 C 6,7 C 3,9 C 3,3 C 2,0 C 0,0 C 81 % 86 % 0 % 1019,8 hPa 0,0 l/m 8,4 km/h (2 Bft) SW 225 0 min 0,0 UV-I 1,0 C -0,5 C 11,4 km/h (2 Bft)
26.02.2012 05:49 4,0 C 6,7 C 3,9 C 3,3 C 2,0 C 0,0 C 82 % 86 % 0 % 1019,8 hPa 0,0 l/m 8,4 km/h (2 Bft) W-NW 292 0 min 0,0 UV-I 1,2 C -0,5 C 11,3 km/h (2 Bft)
26.02.2012 05:54 4,0 C 6,7 C 3,8 C 3,5 C 1,9 C 0,0 C 82 % 86 % 0 % 1019,1 hPa 0,0 l/m 8,4 km/h (2 Bft) SW 225 0 min 0,0 UV-I 1,2 C -0,6 C 9,8 km/h (2 Bft)
26.02.2012 05:59 3,9 C 6,7 C 3,8 C 3,4 C 1,7 C 0,0 C 82 % 86 % 0 % 1019,1 hPa 0,0 l/m 9,0 km/h (2 Bft) W 270 0 min 0,0 UV-I 1,1 C -1,0 C 14,3 km/h (3 Bft)
26.02.2012 06:04 3,9 C 6,7 C 3,7 C 3,2 C 1,7 C 0,0 C 82 % 86 % 0 % 1019,1 hPa 0,0 l/m 9,2 km/h (2 Bft) W-SW 247 0 min 0,0 UV-I 1,1 C -1,1 C 13,0 km/h (3 Bft)
26.02.2012 06:09 3,9 C 6,7 C 3,7 C 3,2 C 1,7 C 0,0 C 82 % 86 % 0 % 1019,1 hPa 0,0 l/m 9,0 km/h (2 Bft) W-SW 247 0 min 0,0 UV-I 1,1 C -1,0 C 10,0 km/h (2 Bft)
26.02.2012 06:14 3,8 C 6,8 C 3,7 C 3,1 C 1,7 C 0,0 C 82 % 86 % 0 % 1018,9 hPa 0,0 l/m 9,0 km/h (2 Bft) W-SW 247 0 min 0,0 UV-I 1,0 C -1,0 C 11,4 km/h (2 Bft)
26.02.2012 06:19 3,9 C 6,8 C 3,6 C 3,4 C 1,3 C 0,0 C 83 % 87 % 0 % 1018,9 hPa 0,0 l/m 10,0 km/h (2 Bft) W-SW 247 0 min 0,0 UV-I 1,3 C -1,8 C 10,9 km/h (2 Bft)
26.02.2012 06:24 3,8 C 6,8 C 3,7 C 3,3 C 1,4 C 0,0 C 83 % 87 % 0 % 1018,9 hPa 0,0 l/m 9,2 km/h (2 Bft) W-SW 247 0 min 0,0 UV-I 1,2 C -1,4 C 11,9 km/h (2 Bft)
26.02.2012 06:29 3,7 C 6,8 C 3,6 C 2,9 C 1,4 C 0,0 C 83 % 87 % 0 % 1018,9 hPa 0,0 l/m 9,0 km/h (2 Bft) SW 225 0 min 0,0 UV-I 1,1 C -1,4 C 12,7 km/h (3 Bft)
26.02.2012 06:34 3,7 C 6,8 C 3,5 C 3,1 C 0,9 C 0,0 C 84 % 87 % 0 % 1019,6 hPa 0,0 l/m 9,8 km/h (2 Bft) W-SW 247 0 min 0,0 UV-I 1,3 C -2,2 C 8,2 km/h (2 Bft)
26.02.2012 06:39 3,7 C 6,9 C 3,5 C 3,0 C 0,8 C 0,0 C 84 % 87 % 0 % 1019,6 hPa 0,0 l/m 10,3 km/h (2 Bft) W 270 0 min 0,0 UV-I 1,3 C -2,4 C 10,0 km/h (2 Bft)
26.02.2012 06:44 3,6 C 6,9 C 3,5 C 2,9 C 0,6 C 0,0 C 85 % 88 % 0 % 1019,6 hPa 0,0 l/m 10,0 km/h (2 Bft) W-SW 247 0 min 0,0 UV-I 1,3 C -2,6 C 9,7 km/h (2 Bft)
26.02.2012 06:49 3,5 C 6,9 C 3,4 C 2,8 C 0,7 C 0,0 C 85 % 88 % 0 % 1019,6 hPa 0,0 l/m 9,5 km/h (2 Bft) W-SW 247 0 min 0,0 UV-I 1,2 C -2,3 C 11,6 km/h (2 Bft)
26.02.2012 06:54 3,5 C 7,0 C 3,2 C 2,6 C 0,7 C 0,0 C 85 % 89 % 0 % 1019,1 hPa 0,0 l/m 9,3 km/h (2 Bft) SW 225 0 min 0,0 UV-I 1,2 C -2,3 C 10,0 km/h (2 Bft)
26.02.2012 06:59 3,5 C 7,0 C 3,3 C 2,8 C 0,4 C 0,0 C 86 % 89 % 0 % 1019,1 hPa 0,0 l/m 9,8 km/h (2 Bft) SW 225 0 min 0,0 UV-I 1,4 C -2,8 C 10,8 km/h (2 Bft)
26.02.2012 07:04 3,3 C 7,0 C 3,1 C 2,3 C 0,4 C 0,0 C 86 % 89 % 0 % 1019,1 hPa 0,0 l/m 9,8 km/h (2 Bft) W-SW 247 0 min 0,0 UV-I 1,2 C -2,8 C 10,3 km/h (2 Bft)
26.02.2012 07:09 3,3 C 7,0 C 3,1 C 2,6 C 0,5 C 0,0 C 86 % 90 % 0 % 1019,1 hPa 0,0 l/m 9,2 km/h (2 Bft) W-SW 247 0 min 0,0 UV-I 1,2 C -2,5 C 7,7 km/h (2 Bft)
26.02.2012 07:14 3,2 C 7,0 C 3,1 C 2,6 C 0,4 C 0,0 C 86 % 90 % 0 % 1019,1 hPa 0,0 l/m 9,5 km/h (2 Bft) W 270 0 min 0,0 UV-I 1,1 C -2,7 C 15,1 km/h (3 Bft)
26.02.2012 07:19 3,2 C 7,0 C 3,1 C 2,6 C 0,5 C 0,0 C 86 % 90 % 0 % 1019,1 hPa 0,0 l/m 9,0 km/h (2 Bft) W-SW 247 0 min 0,0 UV-I 1,1 C -2,4 C 10,3 km/h (2 Bft)
26.02.2012 07:24 3,3 C 7,0 C 3,0 C 2,4 C 0,5 C 0,0 C 87 % 91 % 0 % 1019,1 hPa 0,0 l/m 8,5 km/h (2 Bft) SW 225 0 min 0,0 UV-I 1,3 C -2,3 C 9,7 km/h (2 Bft)
26.02.2012 07:29 3,3 C 7,0 C 2,9 C 2,6 C 0,4 C 0,0 C 87 % 91 % 0 % 1019,1 hPa 0,0 l/m 9,0 km/h (2 Bft) SW 225 0 min 0,0 UV-I 1,3 C -2,6 C 12,4 km/h (3 Bft)
26.02.2012 07:34 3,3 C 7,0 C 2,9 C 2,3 C 0,4 C 0,0 C 87 % 91 % 0 % 1018,8 hPa 0,0 l/m 9,0 km/h (2 Bft) W-SW 247 0 min 0,0 UV-I 1,3 C -2,6 C 11,1 km/h (2 Bft)
26.02.2012 07:39 3,2 C 7,0 C 2,9 C 2,5 C 0,2 C 0,0 C 86 % 91 % 0 % 1018,8 hPa 0,0 l/m 9,8 km/h (2 Bft) W-SW 247 0 min 0,0 UV-I 1,1 C -3,0 C 20,8 km/h (4 Bft)
26.02.2012 07:44 3,2 C 7,0 C 2,8 C 2,5 C 0,0 C 0,0 C 86 % 91 % 0 % 1018,8 hPa 0,0 l/m 10,5 km/h (2 Bft) W-SW 247 0 min 0,0 UV-I 1,1 C -3,4 C 14,2 km/h (3 Bft)
26.02.2012 07:49 3,2 C 6,9 C 2,8 C 2,5 C 0,3 C 0,0 C 86 % 91 % 0 % 1018,8 hPa 0,0 l/m 9,8 km/h (2 Bft) W-SW 247 0 min 0,0 UV-I 1,1 C -2,9 C 10,6 km/h (2 Bft)
26.02.2012 07:54 3,2 C 7,0 C 2,8 C 2,6 C 0,6 C 0,0 C 86 % 91 % 0 % 1018,9 hPa 0,0 l/m 8,4 km/h (2 Bft) NW 315 0 min 0,0 UV-I 1,1 C -2,2 C 9,5 km/h (2 Bft)
26.02.2012 07:59 3,3 C 6,9 C 2,8 C 2,7 C 0,7 C 0,0 C 86 % 92 % 0 % 1018,9 hPa 0,0 l/m 8,4 km/h (2 Bft) S 180 0 min 0,0 UV-I 1,2 C -2,0 C 12,1 km/h (2 Bft)
26.02.2012 08:04 3,2 C 6,9 C 2,8 C 2,6 C 0,4 C 0,0 C 86 % 92 % 0 % 1018,9 hPa 0,0 l/m 9,5 km/h (2 Bft) W-SW 247 0 min 0,0 UV-I 1,1 C -2,7 C 19,5 km/h (3 Bft)
26.02.2012 08:09 3,2 C 6,9 C 2,9 C 2,6 C 0,6 C 0,0 C 86 % 92 % 0 % 1018,9 hPa 0,0 l/m 9,5 km/h (2 Bft) W-SW 247 0 min 0,0 UV-I 1,1 C -2,5 C 10,3 km/h (2 Bft)
26.02.2012 08:14 3,2 C 6,9 C 2,9 C 2,6 C 0,8 C 0,0 C 86 % 92 % 0 % 1019,5 hPa 0,0 l/m 8,2 km/h (2 Bft) W-SW 247 0 min 0,0 UV-I 1,1 C -1,9 C 9,2 km/h (2 Bft)
26.02.2012 08:19 3,2 C 6,8 C 2,8 C 2,4 C 0,8 C 0,0 C 86 % 92 % 0 % 1019,5 hPa 0,0 l/m 8,5 km/h (2 Bft) W-SW 247 0 min 0,0 UV-I 1,1 C -1,9 C 15,1 km/h (3 Bft)
26.02.2012 08:24 3,3 C 6,9 C 2,9 C 2,7 C 0,5 C 0,0 C 86 % 92 % 0 % 1019,5 hPa 0,0 l/m 9,7 km/h (2 Bft) W-SW 247 0 min 0,0 UV-I 1,2 C -2,6 C 9,2 km/h (2 Bft)
26.02.2012 08:29 3,3 C 6,9 C 2,9 C 2,7 C 0,6 C 0,0 C 86 % 92 % 0 % 1019,5 hPa 0,0 l/m 9,3 km/h (2 Bft) SW 225 0 min 0,0 UV-I 1,2 C -2,4 C 6,9 km/h (2 Bft)
26.02.2012 08:34 3,3 C 6,9 C 2,9 C 2,7 C 0,4 C 0,0 C 85 % 92 % 0 % 1019,9 hPa 0,0 l/m 9,8 km/h (2 Bft) W-SW 247 0 min 0,0 UV-I 1,0 C -2,8 C 7,6 km/h (2 Bft)
26.02.2012 08:39 3,2 C 7,0 C 2,8 C 2,4 C 0,8 C 0,0 C 86 % 92 % 0 % 1019,9 hPa 0,0 l/m 7,6 km/h (2 Bft) W-SW 247 0 min 0,0 UV-I 1,1 C -1,7 C 11,1 km/h (2 Bft)
26.02.2012 08:44 3,0 C 7,0 C 2,5 C 2,2 C 0,5 C 0,0 C 86 % 92 % 0 % 1019,9 hPa 0,7 l/m 6,9 km/h (2 Bft) W-SW 247 0 min 0,0 UV-I 0,9 C -1,8 C 11,9 km/h (2 Bft)
26.02.2012 09:04 2,3 C 7,0 C 1,9 C 1,7 C -1,0 C 0,0 C 87 % 92 % 0 % 1019,3 hPa 0,7 l/m 8,5 km/h (2 Bft) S 180 0 min 0,0 UV-I 0,4 C -4,1 C 8,7 km/h (2 Bft)
26.02.2012 09:10 2,0 C 7,0 C 1,9 C 1,5 C 0,5 C 0,0 C 88 % 92 % 0 % 1019,3 hPa 0,7 l/m 4,2 km/h (1 Bft) W-SW 247 0 min 0,0 UV-I 0,2 C 0,5 C 7,9 km/h (2 Bft)
26.02.2012 09:15 2,0 C 7,0 C 1,9 C 1,5 C 0,4 C 0,0 C 88 % 92 % 0 % 1020,6 hPa 0,0 l/m 4,3 km/h (1 Bft) W-NW 292 0 min 0,0 UV-I 0,2 C 0,4 C 4,2 km/h (1 Bft)
26.02.2012 09:20 1,9 C 7,0 C 1,9 C 1,6 C 1,0 C 0,0 C 88 % 92 % 0 % 1020,6 hPa 0,7 l/m 3,5 km/h (1 Bft) W-NW 292 0 min 0,0 UV-I 0,1 C 1,0 C 2,9 km/h (1 Bft)
26.02.2012 09:25 2,0 C 7,0 C 1,9 C 1,8 C 1,4 C 0,0 C 89 % 93 % 0 % 1020,6 hPa 0,0 l/m 2,9 km/h (1 Bft) N-NW 337 0 min 0,0 UV-I 0,4 C 1,4 C 3,2 km/h (1 Bft)
26.02.2012 09:30 2,0 C 7,0 C 1,9 C 1,7 C 1,0 C 0,0 C 89 % 93 % 0 % 1020,6 hPa 0,0 l/m 3,7 km/h (1 Bft) S-SW 202 0 min 0,0 UV-I 0,4 C 1,0 C 14,3 km/h (3 Bft)
26.02.2012 09:35 2,0 C 7,0 C 1,9 C 1,5 C 0,5 C 0,0 C 89 % 93 % 0 % 1020,6 hPa 0,0 l/m 4,8 km/h (1 Bft) W-SW 247 0 min 0,0 UV-I 0,4 C -0,9 C 8,9 km/h (2 Bft)
26.02.2012 09:40 2,1 C 7,0 C 1,9 C 1,4 C 0,0 C 0,0 C 90 % 93 % 0 % 1020,6 hPa 0,0 l/m 6,0 km/h (2 Bft) SW 225 0 min 0,0 UV-I 0,6 C -2,0 C 5,0 km/h (1 Bft)
26.02.2012 09:45 1,9 C 7,0 C 1,8 C 1,4 C 0,3 C 0,0 C 90 % 93 % 0 % 1020,6 hPa 0,0 l/m 5,1 km/h (1 Bft) W-SW 247 0 min 0,0 UV-I 0,4 C -1,3 C 6,4 km/h (2 Bft)
26.02.2012 09:50 1,9 C 7,0 C 1,9 C 1,5 C 0,8 C 0,0 C 90 % 93 % 0 % 1020,6 hPa 0,0 l/m 4,3 km/h (1 Bft) SW 225 0 min 0,0 UV-I 0,4 C 0,8 C 4,0 km/h (1 Bft)
26.02.2012 09:55 1,9 C 7,0 C 1,9 C 1,7 C 1,4 C 0,0 C 90 % 93 % 0 % 1020,9 hPa 0,0 l/m 3,5 km/h (1 Bft) W-SW 247 0 min 0,0 UV-I 0,4 C 1,4 C 2,3 km/h (1 Bft)
26.02.2012 10:00 1,9 C 7,0 C 1,9 C 1,8 C 1,7 C 0,0 C 90 % 93 % 0 % 1020,9 hPa 0,0 l/m 3,1 km/h (1 Bft) W-SW 247 0 min 0,0 UV-I 0,4 C 1,7 C 3,2 km/h (1 Bft)
26.02.2012 10:14 2,0 C 7,0 C 2,0 C 1,9 C 1,8 C 0,0 C 90 % 94 % 0 % 1020,8 hPa 0,0 l/m 3,4 km/h (1 Bft) W 270 0 min 0,0 UV-I 0,5 C 1,8 C 7,1 km/h (2 Bft)
26.02.2012 10:15 2,0 C 7,0 C 2,0 C 1,9 C 1,8 C 0,0 C 90 % 94 % 0 % 1020,8 hPa 0,0 l/m 3,4 km/h (1 Bft) W 270 0 min 0,0 UV-I 0,5 C 1,8 C 7,1 km/h (2 Bft)
26.02.2012 10:18 2,0 C 7,0 C 2,0 C 1,9 C 1,8 C 0,0 C 90 % 94 % 0 % 1020,8 hPa 0,0 l/m 3,4 km/h (1 Bft) W 270 0 min 0,0 UV-I 0,5 C 1,8 C 7,1 km/h (2 Bft)
26.02.2012 10:25 2,3 C 7,0 C 2,2 C 2,4 C 2,4 C 0,1 C 91 % 94 % 3 % 1020,8 hPa 0,7 l/m 4,2 km/h (1 Bft) S 180 0 min 0,0 UV-I 1,0 C 2,4 C 2,7 km/h (1 Bft)
26.02.2012 10:30 2,3 C 7,0 C 2,5 C 2,8 C 2,8 C 0,5 C 91 % 94 % 13 % 1020,8 hPa 0,0 l/m 4,0 km/h (1 Bft) W-SW 247 0 min 0,0 UV-I 1,0 C 2,8 C 5,0 km/h (1 Bft)
26.02.2012 10:35 2,5 C 7,0 C 2,5 C 3,0 C 3,0 C 0,5 C 91 % 94 % 13 % 1021,1 hPa 0,0 l/m 4,2 km/h (1 Bft) W 270 0 min 0,0 UV-I 1,2 C 3,0 C 3,7 km/h (1 Bft)
26.02.2012 10:40 2,4 C 7,0 C 2,5 C 2,8 C 2,8 C 0,4 C 91 % 94 % 11 % 1021,1 hPa 0,0 l/m 5,0 km/h (1 Bft) SW 225 0 min 0,0 UV-I 1,1 C 1,6 C 5,3 km/h (1 Bft)
26.02.2012 10:45 2,6 C 7,0 C 2,7 C 3,5 C 3,5 C 0,9 C 91 % 94 % 24 % 1021,1 hPa 0,0 l/m 4,0 km/h (1 Bft) W-SW 247 0 min 0,0 UV-I 1,3 C 3,5 C 4,2 km/h (1 Bft)
26.02.2012 10:50 2,7 C 7,0 C 2,8 C 4,1 C 4,1 C 1,4 C 91 % 94 % 37 % 1021,1 hPa 0,0 l/m 3,1 km/h (1 Bft) W-SW 247 0 min 0,0 UV-I 1,4 C 4,1 C 4,7 km/h (1 Bft)
26.02.2012 10:55 2,7 C 7,0 C 2,8 C 4,2 C 4,2 C 1,5 C 91 % 94 % 39 % 1021,4 hPa 0,0 l/m 2,9 km/h (1 Bft) W 270 0 min 0,0 UV-I 1,4 C 4,2 C 3,2 km/h (1 Bft)
26.02.2012 11:00 2,8 C 7,0 C 2,8 C 3,6 C 3,6 C 0,8 C 91 % 94 % 21 % 1021,4 hPa 0,0 l/m 3,5 km/h (1 Bft) W-SW 247 0 min 0,0 UV-I 1,5 C 3,6 C 5,8 km/h (2 Bft)
26.02.2012 11:10 3,1 C 7,0 C 3,1 C 4,7 C 4,7 C 1,6 C 91 % 94 % 42 % 1021,4 hPa 0,0 l/m 3,1 km/h (1 Bft) N 0 0 min 0,0 UV-I 1,8 C 4,7 C 3,2 km/h (1 Bft)
26.02.2012 11:20 3,3 C 7,0 C 3,5 C 5,3 C 5,3 C 2,0 C 92 % 94 % 53 % 1021,8 hPa 0,0 l/m 3,7 km/h (1 Bft) W-SW 247 0 min 0,0 UV-I 2,1 C 5,3 C 2,7 km/h (1 Bft)
26.02.2012 11:25 3,4 C 7,0 C 3,5 C 5,5 C 5,5 C 2,1 C 92 % 94 % 55 % 1021,8 hPa 0,0 l/m 3,7 km/h (1 Bft) W-SW 247 0 min 0,0 UV-I 2,2 C 5,5 C 1,8 km/h (1 Bft)
26.02.2012 11:30 3,7 C 7,0 C 3,6 C 6,0 C 6,0 C 2,3 C 92 % 94 % 61 % 1021,8 hPa 0,0 l/m 2,9 km/h (1 Bft) N-NO 22 0 min 0,0 UV-I 2,5 C 6,0 C 0,0 km/h (0 Bft)
26.02.2012 11:35 3,7 C 7,0 C 3,9 C 6,1 C 6,1 C 2,4 C 91 % 94 % 63 % 1021,6 hPa 0,0 l/m 1,9 km/h (1 Bft) W 270 0 min 0,0 UV-I 2,4 C 6,1 C 5,6 km/h (1 Bft)
26.02.2012 11:40 3,8 C 7,0 C 3,7 C 6,0 C 6,0 C 2,2 C 91 % 94 % 58 % 1021,6 hPa 0,0 l/m 1,8 km/h (1 Bft) W-SW 247 0 min 0,0 UV-I 2,5 C 6,0 C 4,5 km/h (1 Bft)
26.02.2012 11:45 3,9 C 7,0 C 3,9 C 5,8 C 5,8 C 1,9 C 90 % 94 % 50 % 1021,6 hPa 0,0 l/m 2,6 km/h (1 Bft) N-NW 337 0 min 0,0 UV-I 2,4 C 5,8 C 2,9 km/h (1 Bft)
26.02.2012 11:50 4,0 C 7,0 C 3,9 C 5,9 C 5,9 C 1,9 C 90 % 94 % 50 % 1021,6 hPa 0,0 l/m 2,9 km/h (1 Bft) W-SW 247 0 min 0,0 UV-I 2,5 C 5,9 C 3,7 km/h (1 Bft)
26.02.2012 11:55 4,0 C 7,0 C 3,8 C 5,9 C 5,9 C 1,9 C 90 % 94 % 50 % 1021,9 hPa 0,0 l/m 2,3 km/h (1 Bft) W-SW 247 0 min 0,0 UV-I 2,5 C 5,9 C 1,8 km/h (1 Bft)
26.02.2012 12:00 4,1 C 7,1 C 3,9 C 5,8 C 5,8 C 1,7 C 90 % 94 % 45 % 1021,9 hPa 0,0 l/m 1,3 km/h (1 Bft) S 180 0 min 0,0 UV-I 2,6 C 5,8 C 0,0 km/h (0 Bft)
26.02.2012 12:09 4,3 C 7,0 C 4,0 C 5,8 C 5,8 C 1,5 C 90 % 94 % 39 % 1021,9 hPa 0,0 l/m 1,1 km/h (1 Bft) N 0 0 min 0,0 UV-I 2,8 C 5,8 C 5,3 km/h (1 Bft)
26.02.2012 12:16 4,3 C 7,0 C 3,9 C 5,7 C 5,7 C 1,4 C 89 % 94 % 37 % 1021,7 hPa 0,0 l/m 1,1 km/h (1 Bft) N-NO 22 0 min 0,0 UV-I 2,7 C 5,7 C 0,0 km/h (0 Bft)
26.02.2012 12:20 4,2 C 7,1 C 3,9 C 5,5 C 5,5 C 1,3 C 89 % 94 % 34 % 1021,7 hPa 0,0 l/m 1,8 km/h (1 Bft) W-SW 247 0 min 0,0 UV-I 2,6 C 5,5 C 0,0 km/h (0 Bft)
26.02.2012 12:25 4,0 C 7,0 C 3,7 C 4,6 C 4,6 C 0,6 C 88 % 94 % 16 % 1021,7 hPa 0,0 l/m 2,4 km/h (1 Bft) SW 225 0 min 0,0 UV-I 2,2 C 4,6 C 3,4 km/h (1 Bft)
26.02.2012 12:30 3,9 C 7,0 C 3,5 C 4,1 C 4,1 C 0,2 C 87 % 93 % 5 % 1021,7 hPa 0,0 l/m 3,2 km/h (1 Bft) NW 315 0 min 0,0 UV-I 1,9 C 4,1 C 6,0 km/h (2 Bft)
26.02.2012 12:35 3,8 C 7,0 C 3,4 C 3,7 C 3,6 C 0,0 C 87 % 93 % 0 % 1021,8 hPa 0,0 l/m 3,7 km/h (1 Bft) N-NO 22 0 min 0,0 UV-I 1,8 C 3,6 C 10,5 km/h (2 Bft)
26.02.2012 12:40 3,9 C 7,0 C 3,5 C 3,9 C 3,9 C 0,0 C 87 % 93 % 0 % 1021,8 hPa 0,0 l/m 3,4 km/h (1 Bft) W-SW 247 0 min 0,0 UV-I 1,9 C 3,9 C 5,5 km/h (1 Bft)
26.02.2012 12:45 3,9 C 7,1 C 3,4 C 4,2 C 4,2 C 0,3 C 87 % 93 % 8 % 1021,8 hPa 0,0 l/m 2,7 km/h (1 Bft) W-NW 292 0 min 0,0 UV-I 1,9 C 4,2 C 2,7 km/h (1 Bft)
26.02.2012 12:50 3,9 C 7,1 C 3,5 C 4,3 C 4,3 C 0,4 C 87 % 93 % 11 % 1021,8 hPa 0,0 l/m 2,3 km/h (1 Bft) W 270 0 min 0,0 UV-I 1,9 C 4,3 C 3,4 km/h (1 Bft)
26.02.2012 12:55 4,0 C 7,0 C 3,7 C 5,5 C 5,5 C 1,5 C 88 % 93 % 39 % 1022,4 hPa 0,0 l/m 1,9 km/h (1 Bft) NO 45 0 min 0,0 UV-I 2,2 C 5,5 C 5,3 km/h (1 Bft)
26.02.2012 13:00 4,3 C 7,0 C 4,0 C 7,1 C 7,1 C 2,8 C 88 % 94 % 74 % 1022,4 hPa 0,0 l/m 2,1 km/h (1 Bft) S-SW 202 0 min 0,0 UV-I 2,5 C 7,1 C 3,2 km/h (1 Bft)
26.02.2012 13:10 4,7 C 6,8 C 4,3 C 8,3 C 8,3 C 3,6 C 86 % 93 % 95 % 1022,4 hPa 0,0 l/m 3,4 km/h (1 Bft) N 0 10 min 0,0 UV-I 2,6 C 8,3 C 3,7 km/h (1 Bft)
26.02.2012 13:20 5,1 C 6,7 C 4,4 C 10,0 C 10,0 C 4,9 C 85 % 93 % 100 % 1022,2 hPa 0,0 l/m 3,2 km/h (1 Bft) N-NO 22 10 min 0,0 UV-I 2,8 C 10,0 C 4,5 km/h (1 Bft)
26.02.2012 13:25 5,2 C 6,7 C 4,7 C 10,0 C 10,0 C 4,8 C 84 % 93 % 100 % 1022,2 hPa 0,0 l/m 2,6 km/h (1 Bft) W 270 5 min 0,0 UV-I 2,7 C 10,0 C 4,2 km/h (1 Bft)
26.02.2012 13:30 5,4 C 6,6 C 4,5 C 10,1 C 10,1 C 4,7 C 81 % 92 % 100 % 1022,2 hPa 0,0 l/m 3,4 km/h (1 Bft) W-SW 247 5 min 0,0 UV-I 2,4 C 10,1 C 8,2 km/h (2 Bft)
26.02.2012 13:35 5,4 C 6,7 C 4,5 C 9,4 C 9,4 C 4,0 C 81 % 92 % 100 % 1022,7 hPa 0,0 l/m 4,0 km/h (1 Bft) SW 225 5 min 0,0 UV-I 2,4 C 9,4 C 4,2 km/h (1 Bft)
26.02.2012 13:40 5,4 C 6,6 C 4,5 C 9,3 C 9,3 C 3,9 C 80 % 91 % 100 % 1022,7 hPa 0,0 l/m 4,7 km/h (1 Bft) S-SO 157 5 min 0,0 UV-I 2,2 C 9,1 C 7,2 km/h (2 Bft)
26.02.2012 13:45 5,6 C 6,6 C 4,5 C 9,6 C 9,6 C 4,0 C 78 % 90 % 100 % 1022,7 hPa 0,0 l/m 5,0 km/h (1 Bft) W 270 5 min 0,0 UV-I 2,1 C 9,3 C 4,2 km/h (1 Bft)
26.02.2012 13:50 5,5 C 6,6 C 4,5 C 9,2 C 9,2 C 3,7 C 78 % 90 % 97 % 1022,7 hPa 0,0 l/m 4,2 km/h (1 Bft) N-NO 22 5 min 0,0 UV-I 2,0 C 9,2 C 3,9 km/h (1 Bft)
26.02.2012 13:55 5,5 C 6,7 C 4,7 C 8,4 C 8,4 C 2,9 C 78 % 91 % 76 % 1022,7 hPa 0,0 l/m 3,1 km/h (1 Bft) NW 315 0 min 0,0 UV-I 2,0 C 8,4 C 1,9 km/h (1 Bft)
26.02.2012 14:00 5,5 C 6,7 C 4,9 C 8,5 C 8,5 C 3,0 C 79 % 91 % 79 % 1022,7 hPa 0,0 l/m 2,6 km/h (1 Bft) W-SW 247 0 min 0,0 UV-I 2,2 C 8,5 C 2,6 km/h (1 Bft)
26.02.2012 14:09 5,7 C 6,7 C 4,8 C 9,0 C 9,0 C 3,3 C 78 % 91 % 87 % 1022,7 hPa 0,0 l/m 2,4 km/h (1 Bft) N 0 9 min 0,0 UV-I 2,2 C 9,0 C 3,9 km/h (1 Bft)
26.02.2012 14:15 5,7 C 6,7 C 4,7 C 8,0 C 8,0 C 2,3 C 76 % 89 % 61 % 1022,7 hPa 0,0 l/m 3,5 km/h (1 Bft) NO 45 0 min 0,0 UV-I 1,8 C 8,0 C 2,1 km/h (1 Bft)
26.02.2012 14:20 5,6 C 6,7 C 5,5 C 8,7 C 8,7 C 3,1 C 77 % 90 % 82 % 1022,7 hPa 0,0 l/m 3,4 km/h (1 Bft) W 270 0 min 0,0 UV-I 1,9 C 8,7 C 2,4 km/h (1 Bft)
26.02.2012 14:25 6,3 C 6,7 C 6,5 C 10,5 C 10,5 C 4,2 C 76 % 89 % 100 % 1022,7 hPa 0,0 l/m 3,7 km/h (1 Bft) W-NW 292 5 min 0,0 UV-I 2,4 C 10,5 C 12,7 km/h (3 Bft)
26.02.2012 14:30 6,5 C 6,7 C 7,2 C 10,9 C 10,9 C 4,4 C 75 % 88 % 100 % 1022,7 hPa 0,0 l/m 3,5 km/h (1 Bft) W-SW 247 5 min 0,0 UV-I 2,4 C 10,9 C 0,0 km/h (0 Bft)
26.02.2012 14:35 6,7 C 6,7 C 7,5 C 11,6 C 11,6 C 4,9 C 73 % 83 % 100 % 1022,8 hPa 0,0 l/m 4,2 km/h (1 Bft) NW 315 5 min 0,0 UV-I 2,2 C 11,6 C 5,5 km/h (1 Bft)
26.02.2012 14:40 6,5 C 6,7 C 7,7 C 10,9 C 10,9 C 4,4 C 70 % 82 % 100 % 1022,8 hPa 0,0 l/m 4,3 km/h (1 Bft) O-NO 67 5 min 0,0 UV-I 1,4 C 10,9 C 5,3 km/h (1 Bft)
26.02.2012 14:45 6,5 C 6,7 C 8,4 C 11,1 C 11,1 C 4,6 C 69 % 78 % 100 % 1022,8 hPa 0,0 l/m 4,5 km/h (1 Bft) SW 225 5 min 0,0 UV-I 1,2 C 11,1 C 5,1 km/h (1 Bft)
26.02.2012 14:50 6,7 C 6,7 C 9,0 C 11,2 C 11,2 C 4,5 C 70 % 77 % 100 % 1022,8 hPa 0,0 l/m 4,3 km/h (1 Bft) NW 315 5 min 0,0 UV-I 1,6 C 11,2 C 6,1 km/h (2 Bft)
26.02.2012 14:55 6,7 C 6,7 C 8,4 C 10,9 C 10,9 C 4,2 C 68 % 75 % 100 % 1022,9 hPa 0,0 l/m 3,5 km/h (1 Bft) NO 45 5 min 0,0 UV-I 1,2 C 10,9 C 3,7 km/h (1 Bft)
26.02.2012 15:00 6,6 C 6,7 C 8,5 C 10,5 C 10,5 C 3,9 C 70 % 75 % 100 % 1022,9 hPa 0,0 l/m 3,1 km/h (1 Bft) S 180 5 min 0,0 UV-I 1,5 C 10,5 C 6,1 km/h (2 Bft)
26.02.2012 15:10 7,2 C 6,7 C 10,2 C 11,9 C 11,9 C 4,7 C 67 % 67 % 100 % 1022,9 hPa 0,0 l/m 4,5 km/h (1 Bft) N 0 10 min 0,0 UV-I 1,5 C 11,9 C 10,1 km/h (2 Bft)
26.02.2012 15:20 7,2 C 6,7 C 10,1 C 11,9 C 11,9 C 4,7 C 65 % 62 % 100 % 1023,1 hPa 0,0 l/m 6,3 km/h (2 Bft) W 270 10 min 0,0 UV-I 1,1 C 11,9 C 6,0 km/h (2 Bft)
26.02.2012 15:25 7,1 C 6,7 C 10,2 C 11,5 C 10,9 C 4,4 C 64 % 61 % 100 % 1023,1 hPa 0,0 l/m 7,7 km/h (2 Bft) S 180 5 min 0,0 UV-I 0,8 C 10,9 C 8,2 km/h (2 Bft)
26.02.2012 15:30 7,3 C 6,7 C 10,2 C 11,1 C 11,1 C 3,8 C 65 % 60 % 100 % 1023,1 hPa 0,0 l/m 6,6 km/h (2 Bft) SW 225 5 min 0,0 UV-I 1,2 C 11,1 C 3,5 km/h (1 Bft)
26.02.2012 15:35 7,5 C 6,7 C 9,6 C 11,8 C 11,8 C 4,3 C 65 % 58 % 100 % 1023,2 hPa 0,0 l/m 3,9 km/h (1 Bft) N-NO 22 5 min 0,0 UV-I 1,4 C 11,8 C 10,3 km/h (2 Bft)
26.02.2012 15:40 7,3 C 6,7 C 9,1 C 11,7 C 11,7 C 4,4 C 62 % 59 % 100 % 1023,2 hPa 0,0 l/m 3,5 km/h (1 Bft) W 270 5 min 0,0 UV-I 0,5 C 11,7 C 7,6 km/h (2 Bft)
26.02.2012 15:45 7,3 C 6,8 C 8,2 C 11,2 C 11,2 C 3,9 C 62 % 60 % 100 % 1023,2 hPa 0,0 l/m 3,7 km/h (1 Bft) NO 45 5 min 0,0 UV-I 0,5 C 11,2 C 1,9 km/h (1 Bft)
26.02.2012 15:50 7,1 C 6,7 C 7,5 C 10,3 C 10,3 C 3,2 C 61 % 61 % 84 % 1023,2 hPa 0,0 l/m 4,0 km/h (1 Bft) W 270 5 min 0,0 UV-I 0,1 C 10,3 C 6,0 km/h (2 Bft)
26.02.2012 15:55 6,7 C 6,8 C 6,9 C 8,7 C 8,7 C 2,0 C 62 % 64 % 53 % 1023,4 hPa 0,0 l/m 4,8 km/h (1 Bft) W 270 0 min 0,0 UV-I -0,1 C 8,3 C 6,6 km/h (2 Bft)
26.02.2012 16:00 6,8 C 6,8 C 6,8 C 8,9 C 8,9 C 2,1 C 64 % 65 % 55 % 1023,4 hPa 0,0 l/m 5,0 km/h (1 Bft) W-NW 292 0 min 0,0 UV-I 0,5 C 8,5 C 3,5 km/h (1 Bft)
26.02.2012 16:10 6,7 C 6,8 C 6,4 C 9,3 C 9,3 C 2,6 C 65 % 68 % 68 % 1023,4 hPa 0,0 l/m 4,2 km/h (1 Bft) N 0 10 min 0,0 UV-I 0,6 C 9,3 C 6,6 km/h (2 Bft)
26.02.2012 16:25 6,2 C 6,8 C 5,7 C 8,4 C 8,4 C 2,2 C 66 % 69 % 58 % 1023,4 hPa 0,0 l/m 3,4 km/h (1 Bft) W 270 15 min 0,0 UV-I 0,3 C 8,4 C 8,4 km/h (2 Bft)
26.02.2012 16:30 6,2 C 6,8 C 5,6 C 8,8 C 8,8 C 2,6 C 67 % 71 % 68 % 1023,4 hPa 0,0 l/m 3,7 km/h (1 Bft) SW 225 5 min 0,0 UV-I 0,5 C 8,8 C 3,2 km/h (1 Bft)
26.02.2012 16:35 6,4 C 6,8 C 5,6 C 9,1 C 9,1 C 2,7 C 66 % 71 % 71 % 1024,0 hPa 0,0 l/m 3,7 km/h (1 Bft) SW 225 5 min 0,0 UV-I 0,5 C 9,1 C 8,2 km/h (2 Bft)
26.02.2012 16:40 6,3 C 6,9 C 5,5 C 9,0 C 9,0 C 2,7 C 67 % 71 % 71 % 1024,0 hPa 0,0 l/m 2,4 km/h (1 Bft) S-SO 157 5 min 0,0 UV-I 0,6 C 9,0 C 2,3 km/h (1 Bft)
26.02.2012 16:45 6,3 C 6,9 C 5,5 C 8,9 C 8,9 C 2,6 C 66 % 71 % 68 % 1024,0 hPa 0,0 l/m 1,9 km/h (1 Bft) NW 315 5 min 0,0 UV-I 0,4 C 8,9 C 2,4 km/h (1 Bft)
26.02.2012 16:50 6,2 C 6,9 C 5,6 C 8,6 C 8,6 C 2,4 C 66 % 70 % 63 % 1024,0 hPa 0,0 l/m 2,4 km/h (1 Bft) NO 45 5 min 0,0 UV-I 0,3 C 8,6 C 1,6 km/h (1 Bft)
26.02.2012 16:55 6,0 C 6,9 C 5,6 C 8,6 C 8,6 C 2,6 C 67 % 70 % 68 % 1024,5 hPa 0,0 l/m 2,6 km/h (1 Bft) S-SW 202 5 min 0,0 UV-I 0,3 C 8,6 C 3,4 km/h (1 Bft)
26.02.2012 17:00 6,3 C 6,9 C 5,7 C 8,9 C 8,9 C 2,6 C 66 % 70 % 68 % 1024,5 hPa 0,0 l/m 2,4 km/h (1 Bft) NW 315 5 min 0,0 UV-I 0,4 C 8,9 C 7,2 km/h (2 Bft)
26.02.2012 17:10 6,3 C 6,9 C 5,9 C 9,0 C 9,0 C 2,7 C 65 % 69 % 71 % 1024,5 hPa 0,0 l/m 3,5 km/h (1 Bft) N 0 10 min 0,0 UV-I 0,2 C 9,0 C 1,6 km/h (1 Bft)
26.02.2012 17:20 5,9 C 6,9 C 5,7 C 8,1 C 8,1 C 2,2 C 64 % 68 % 58 % 1024,2 hPa 0,0 l/m 2,6 km/h (1 Bft) SW 225 10 min 0,0 UV-I -0,4 C 8,1 C 4,5 km/h (1 Bft)
26.02.2012 17:25 5,7 C 6,9 C 5,5 C 7,1 C 7,1 C 1,4 C 65 % 69 % 37 % 1024,2 hPa 0,0 l/m 3,1 km/h (1 Bft) SW 225 5 min 0,0 UV-I -0,4 C 7,1 C 0,0 km/h (0 Bft)
26.02.2012 17:30 5,7 C 6,9 C 5,3 C 6,8 C 6,8 C 1,1 C 65 % 68 % 29 % 1024,2 hPa 0,0 l/m 2,9 km/h (1 Bft) W 270 5 min 0,0 UV-I -0,4 C 6,8 C 1,6 km/h (1 Bft)
26.02.2012 17:35 5,5 C 6,9 C 5,1 C 6,2 C 6,2 C 0,7 C 65 % 68 % 0 % 1024,4 hPa 0,0 l/m 1,3 km/h (1 Bft) NW 315 0 min 0,0 UV-I -0,5 C 6,2 C 0,0 km/h (0 Bft)
26.02.2012 17:40 5,4 C 6,7 C 5,0 C 5,7 C 5,7 C 0,3 C 65 % 68 % 0 % 1024,4 hPa 0,0 l/m 0,8 km/h (0 Bft) SO 135 0 min 0,0 UV-I -0,6 C 5,7 C 0,0 km/h (0 Bft)
26.02.2012 17:45 5,2 C 6,7 C 4,9 C 5,2 C 5,2 C 0,0 C 65 % 67 % 0 % 1024,4 hPa 0,0 l/m 0,6 km/h (0 Bft) W-NW 292 0 min 0,0 UV-I -0,8 C 5,2 C 0,0 km/h (0 Bft)
26.02.2012 17:50 5,0 C 6,7 C 4,8 C 4,9 C 4,6 C 0,0 C 65 % 67 % 0 % 1024,4 hPa 0,0 l/m 0,3 km/h (0 Bft) N-NW 337 0 min 0,0 UV-I -1,0 C 4,6 C 0,0 km/h (0 Bft)
26.02.2012 17:55 4,8 C 6,7 C 4,5 C 4,5 C 3,9 C 0,0 C 65 % 68 % 0 % 1024,8 hPa 0,0 l/m 0,2 km/h (0 Bft) O-NO 67 0 min 0,0 UV-I -1,2 C 3,9 C 0,0 km/h (0 Bft)
26.02.2012 18:00 4,7 C 6,8 C 4,3 C 4,3 C 3,5 C 0,0 C 65 % 68 % 0 % 1024,8 hPa 0,0 l/m 0,2 km/h (0 Bft) O-SO 112 0 min 0,0 UV-I -1,3 C 3,5 C 0,0 km/h (0 Bft)
26.02.2012 18:13 4,2 C 6,8 C 4,1 C 3,6 C 2,5 C 0,0 C 65 % 68 % 0 % 1024,8 hPa 0,0 l/m 0,2 km/h (0 Bft) S-SO 157 0 min 0,0 UV-I -1,8 C 2,5 C 0,0 km/h (0 Bft)
26.02.2012 18:14 4,2 C 6,8 C 4,1 C 3,6 C 2,5 C 0,0 C 65 % 68 % 0 % 1024,8 hPa 0,0 l/m 0,2 km/h (0 Bft) S-SO 157 0 min 0,0 UV-I -1,8 C 2,5 C 0,0 km/h (0 Bft)
26.02.2012 18:17 4,0 C 6,8 C 3,7 C 3,4 C 2,1 C 0,0 C 66 % 69 % 0 % 1025,4 hPa 0,0 l/m 0,0 km/h (0 Bft) S-SW 202 0 min 0,0 UV-I -1,8 C 2,1 C 0,0 km/h (0 Bft)
26.02.2012 18:25 3,5 C 6,8 C 3,5 C 2,8 C 1,3 C 0,0 C 68 % 72 % 0 % 1025,4 hPa 0,0 l/m 0,2 km/h (0 Bft) O-NO 67 0 min 0,0 UV-I -1,8 C 1,3 C 0,0 km/h (0 Bft)
26.02.2012 18:30 3,3 C 6,8 C 3,3 C 2,6 C 1,1 C 0,0 C 69 % 72 % 0 % 1025,4 hPa 0,0 l/m 0,2 km/h (0 Bft) SW 225 0 min 0,0 UV-I -1,8 C 1,1 C 0,0 km/h (0 Bft)
26.02.2012 18:35 3,2 C 6,8 C 3,2 C 2,5 C 1,0 C 0,0 C 69 % 73 % 0 % 1025,6 hPa 0,0 l/m 0,2 km/h (0 Bft) N-NO 22 0 min 0,0 UV-I -1,9 C 1,0 C 0,0 km/h (0 Bft)
26.02.2012 18:40 2,9 C 6,8 C 3,0 C 2,2 C 0,9 C 0,0 C 70 % 73 % 0 % 1025,6 hPa 0,0 l/m 0,2 km/h (0 Bft) S-SO 157 0 min 0,0 UV-I -2,0 C 0,9 C 0,0 km/h (0 Bft)
26.02.2012 18:45 2,8 C 6,8 C 3,1 C 2,1 C 0,8 C 0,0 C 70 % 72 % 0 % 1025,6 hPa 0,0 l/m 0,0 km/h (0 Bft) SW 225 0 min 0,0 UV-I -2,1 C 0,8 C 1,6 km/h (1 Bft)
26.02.2012 18:50 2,8 C 6,8 C 2,9 C 2,1 C 0,8 C 0,0 C 70 % 73 % 0 % 1025,6 hPa 0,0 l/m 0,8 km/h (0 Bft) W-SW 247 0 min 0,0 UV-I -2,1 C 0,8 C 1,8 km/h (1 Bft)
26.02.2012 18:55 2,7 C 6,8 C 2,7 C 2,1 C 0,8 C 0,0 C 71 % 75 % 0 % 1025,8 hPa 0,0 l/m 1,3 km/h (1 Bft) W-SW 247 0 min 0,0 UV-I -2,0 C 0,8 C 0,0 km/h (0 Bft)
26.02.2012 19:00 2,5 C 6,8 C 2,4 C 1,8 C 0,5 C 0,0 C 72 % 75 % 0 % 1025,8 hPa 0,0 l/m 0,6 km/h (0 Bft) W-SW 247 0 min 0,0 UV-I -2,0 C 0,5 C 0,0 km/h (0 Bft)
26.02.2012 19:10 2,0 C 6,8 C 1,9 C 1,4 C 0,1 C 0,0 C 73 % 76 % 0 % 1025,8 hPa 0,0 l/m 0,0 km/h (0 Bft) N 0 0 min 0,0 UV-I -2,3 C 0,1 C 0,0 km/h (0 Bft)
26.02.2012 19:20 1,7 C 6,8 C 1,5 C 0,9 C -0,6 C 0,0 C 74 % 78 % 0 % 1026,2 hPa 0,0 l/m 0,0 km/h (0 Bft) W 270 0 min 0,0 UV-I -2,4 C -0,6 C 0,0 km/h (0 Bft)
26.02.2012 19:25 1,5 C 6,8 C 1,3 C 0,7 C -0,8 C 0,0 C 75 % 78 % 0 % 1026,2 hPa 0,0 l/m 0,0 km/h (0 Bft) O-SO 112 0 min 0,0 UV-I -2,4 C -0,8 C 0,0 km/h (0 Bft)
26.02.2012 19:30 1,2 C 6,8 C 1,2 C 0,6 C -0,7 C 0,0 C 75 % 79 % 0 % 1026,2 hPa 0,0 l/m 0,0 km/h (0 Bft) O-NO 67 0 min 0,0 UV-I -2,7 C -0,7 C 0,0 km/h (0 Bft)
26.02.2012 19:35 1,2 C 6,8 C 1,1 C 0,6 C -0,6 C 0,0 C 76 % 79 % 0 % 1025,8 hPa 0,0 l/m 0,0 km/h (0 Bft) S-SW 202 0 min 0,0 UV-I -2,5 C -0,6 C 0,0 km/h (0 Bft)
26.02.2012 19:40 1,1 C 6,8 C 0,9 C 0,5 C -0,7 C 0,0 C 76 % 80 % 0 % 1025,8 hPa 0,0 l/m 0,0 km/h (0 Bft) S 180 0 min 0,0 UV-I -2,6 C -0,7 C 0,0 km/h (0 Bft)
26.02.2012 19:45 0,9 C 6,8 C 0,8 C 0,4 C -0,7 C 0,0 C 77 % 80 % 0 % 1025,8 hPa 0,0 l/m 0,0 km/h (0 Bft) S-SO 157 0 min 0,0 UV-I -2,7 C -0,7 C 0,0 km/h (0 Bft)
26.02.2012 19:50 0,9 C 6,8 C 0,7 C 0,3 C -0,9 C 0,0 C 77 % 80 % 0 % 1025,8 hPa 0,0 l/m 0,0 km/h (0 Bft) W 270 0 min 0,0 UV-I -2,7 C -0,9 C 0,0 km/h (0 Bft)
26.02.2012 19:55 0,7 C 6,7 C 0,6 C 0,1 C -1,1 C 0,0 C 77 % 81 % 0 % 1026,1 hPa 0,0 l/m 0,0 km/h (0 Bft) O-SO 112 0 min 0,0 UV-I -2,9 C -1,1 C 0,0 km/h (0 Bft)
26.02.2012 20:00 0,7 C 6,8 C 0,5 C 0,1 C -1,2 C 0,0 C 77 % 81 % 0 % 1026,1 hPa 0,0 l/m 0,0 km/h (0 Bft) O-SO 112 0 min 0,0 UV-I -2,9 C -1,2 C 0,0 km/h (0 Bft)
26.02.2012 20:10 0,5 C 6,9 C 0,3 C -0,1 C -1,3 C 0,0 C 78 % 82 % 0 % 1026,1 hPa 0,0 l/m 0,0 km/h (0 Bft) N 0 0 min 0,0 UV-I -2,9 C -1,3 C 0,0 km/h (0 Bft)
26.02.2012 20:20 0,2 C 6,9 C 0,1 C -0,4 C -1,5 C 0,0 C 79 % 82 % 0 % 1026,4 hPa 0,0 l/m 0,0 km/h (0 Bft) W 270 0 min 0,0 UV-I -3,0 C -1,5 C 0,0 km/h (0 Bft)
26.02.2012 20:25 0,1 C 6,8 C 0,1 C -0,4 C -1,5 C 0,0 C 79 % 83 % 0 % 1026,4 hPa 0,0 l/m 0,0 km/h (0 Bft) N-NO 22 0 min 0,0 UV-I -3,1 C -1,5 C 0,0 km/h (0 Bft)
26.02.2012 20:30 -0,1 C 6,8 C -0,1 C -0,6 C -1,7 C 0,0 C 79 % 83 % 0 % 1026,4 hPa 0,0 l/m 0,0 km/h (0 Bft) O 90 0 min 0,0 UV-I -3,3 C -1,7 C 0,0 km/h (0 Bft)
26.02.2012 20:35 -0,1 C 6,8 C -0,2 C -0,7 C -1,8 C 0,0 C 80 % 83 % 0 % 1026,4 hPa 0,0 l/m 0,0 km/h (0 Bft) N-NO 22 0 min 0,0 UV-I -3,1 C -1,8 C 0,0 km/h (0 Bft)
26.02.2012 20:40 -0,1 C 6,9 C -0,1 C -0,6 C -1,7 C 0,0 C 80 % 83 % 0 % 1026,4 hPa 0,0 l/m 0,0 km/h (0 Bft) O-SO 112 0 min 0,0 UV-I -3,1 C -1,7 C 0,0 km/h (0 Bft)
26.02.2012 20:45 -0,3 C 6,9 C -0,4 C -0,9 C -2,0 C 0,0 C 80 % 84 % 0 % 1026,4 hPa 0,0 l/m 0,0 km/h (0 Bft) O 90 0 min 0,0 UV-I -3,3 C -2,0 C 0,0 km/h (0 Bft)
26.02.2012 20:50 -0,3 C 6,9 C -0,5 C -0,9 C -2,1 C 0,0 C 80 % 84 % 0 % 1026,4 hPa 0,0 l/m 0,0 km/h (0 Bft) W-SW 247 0 min 0,0 UV-I -3,3 C -2,1 C 0,0 km/h (0 Bft)
26.02.2012 20:55 -0,3 C 6,9 C -0,6 C -1,1 C -2,6 C 0,0 C 80 % 84 % 0 % 1026,8 hPa 0,0 l/m 0,0 km/h (0 Bft) N-NO 22 0 min 0,0 UV-I -3,3 C -2,6 C 0,0 km/h (0 Bft)
26.02.2012 21:00 -0,5 C 6,9 C -0,5 C -1,2 C -2,7 C 0,0 C 81 % 84 % 0 % 1026,8 hPa 0,0 l/m 0,0 km/h (0 Bft) O-NO 67 0 min 0,0 UV-I -3,3 C -2,7 C 0,0 km/h (0 Bft)
26.02.2012 21:09 -0,8 C 6,9 C -0,7 C -1,4 C -2,7 C 0,0 C 81 % 85 % 0 % 1026,8 hPa 0,0 l/m 0,0 km/h (0 Bft) N 0 0 min 0,0 UV-I -3,6 C -2,7 C 0,0 km/h (0 Bft)
26.02.2012 21:15 -0,9 C 6,9 C -0,7 C -1,5 C -2,8 C 0,0 C 81 % 85 % 0 % 1026,9 hPa 0,0 l/m 0,0 km/h (0 Bft) O-NO 67 0 min 0,0 UV-I -3,7 C -2,8 C 0,0 km/h (0 Bft)
26.02.2012 21:20 -0,9 C 6,9 C -0,9 C -1,6 C -3,0 C 0,0 C 82 % 85 % 0 % 1026,9 hPa 0,0 l/m 0,0 km/h (0 Bft) O-SO 112 0 min 0,0 UV-I -3,6 C -3,0 C 0,0 km/h (0 Bft)
26.02.2012 21:25 -1,1 C 6,9 C -0,9 C -1,8 C -3,1 C 0,0 C 82 % 85 % 0 % 1026,9 hPa 0,0 l/m 0,0 km/h (0 Bft) SO 135 0 min 0,0 UV-I -3,8 C -3,1 C 0,0 km/h (0 Bft)
26.02.2012 21:30 -1,2 C 6,8 C -1,1 C -1,8 C -3,1 C 0,0 C 82 % 86 % 0 % 1026,9 hPa 0,0 l/m 0,0 km/h (0 Bft) O-NO 67 0 min 0,0 UV-I -3,9 C -3,1 C 0,0 km/h (0 Bft)
26.02.2012 21:35 -1,2 C 6,8 C -1,2 C -1,8 C -3,1 C 0,0 C 82 % 86 % 0 % 1026,9 hPa 0,0 l/m 0,0 km/h (0 Bft) O-NO 67 0 min 0,0 UV-I -3,9 C -3,1 C 0,0 km/h (0 Bft)
26.02.2012 21:40 -1,3 C 6,8 C -1,2 C -1,9 C -3,2 C 0,0 C 83 % 86 % 0 % 1026,9 hPa 0,0 l/m 0,0 km/h (0 Bft) O-SO 112 0 min 0,0 UV-I -3,8 C -3,2 C 0,0 km/h (0 Bft)
26.02.2012 21:45 -1,3 C 6,8 C -1,3 C -2,0 C -3,5 C 0,0 C 83 % 86 % 0 % 1026,9 hPa 0,0 l/m 0,0 km/h (0 Bft) S 180 0 min 0,0 UV-I -3,8 C -3,5 C 0,0 km/h (0 Bft)
26.02.2012 21:50 -1,5 C 6,8 C -1,3 C -2,2 C -3,6 C 0,0 C 83 % 86 % 0 % 1026,9 hPa 0,0 l/m 0,0 km/h (0 Bft) S 180 0 min 0,0 UV-I -4,0 C -3,6 C 0,0 km/h (0 Bft)
26.02.2012 21:55 -1,6 C 6,8 C -1,5 C -2,3 C -3,6 C 0,0 C 83 % 86 % 0 % 1027,1 hPa 0,0 l/m 0,0 km/h (0 Bft) O-SO 112 0 min 0,0 UV-I -4,1 C -3,6 C 0,0 km/h (0 Bft)
26.02.2012 22:00 -1,7 C 6,8 C -1,5 C -2,3 C -3,5 C 0,0 C 83 % 86 % 0 % 1027,1 hPa 0,0 l/m 0,0 km/h (0 Bft) O-NO 67 0 min 0,0 UV-I -4,2 C -3,5 C 0,0 km/h (0 Bft)
26.02.2012 22:12 -1,7 C 6,8 C -1,6 C -2,3 C -3,4 C 0,0 C 84 % 86 % 0 % 1027,1 hPa 0,0 l/m 0,0 km/h (0 Bft) N 0 0 min 0,0 UV-I -4,0 C -3,4 C 0,0 km/h (0 Bft)
26.02.2012 22:20 -1,5 C 6,8 C -1,6 C -2,1 C -3,3 C 0,0 C 84 % 87 % 0 % 1027,1 hPa 0,0 l/m 0,2 km/h (0 Bft) O-NO 67 0 min 0,0 UV-I -3,8 C -3,3 C 1,8 km/h (1 Bft)
26.02.2012 22:25 -1,7 C 6,8 C -1,5 C -2,3 C -3,4 C 0,0 C 84 % 87 % 0 % 1027,1 hPa 0,0 l/m 0,2 km/h (0 Bft) O 90 0 min 0,0 UV-I -4,0 C -3,4 C 0,0 km/h (0 Bft)
26.02.2012 22:30 -1,7 C 6,7 C -1,5 C -2,3 C -3,4 C 0,0 C 84 % 87 % 0 % 1027,1 hPa 0,0 l/m 0,2 km/h (0 Bft) S-SO 157 0 min 0,0 UV-I -4,0 C -3,4 C 0,0 km/h (0 Bft)
26.02.2012 22:35 -1,7 C 6,7 C -1,7 C -2,4 C -3,7 C 0,0 C 84 % 87 % 0 % 1027,2 hPa 0,0 l/m 0,0 km/h (0 Bft) O-SO 112 0 min 0,0 UV-I -4,0 C -3,7 C 0,0 km/h (0 Bft)
26.02.2012 22:40 -1,7 C 6,7 C -1,7 C -2,3 C -3,6 C 0,0 C 84 % 87 % 0 % 1027,2 hPa 0,0 l/m 0,0 km/h (0 Bft) NO 45 0 min 0,0 UV-I -4,0 C -3,6 C 0,0 km/h (0 Bft)
26.02.2012 22:45 -1,9 C 6,7 C -1,7 C -2,5 C -3,7 C 0,0 C 84 % 87 % 0 % 1027,2 hPa 0,0 l/m 0,0 km/h (0 Bft) SW 225 0 min 0,0 UV-I -4,2 C -3,7 C 0,0 km/h (0 Bft)
26.02.2012 22:50 -2,0 C 6,7 C -1,8 C -2,6 C -3,8 C 0,0 C 84 % 87 % 0 % 1027,2 hPa 0,0 l/m 0,0 km/h (0 Bft) O-NO 67 0 min 0,0 UV-I -4,3 C -3,8 C 0,0 km/h (0 Bft)
26.02.2012 22:55 -2,1 C 6,7 C -1,9 C -2,6 C -3,7 C 0,0 C 84 % 87 % 0 % 1027,2 hPa 0,0 l/m 0,0 km/h (0 Bft) O-NO 67 0 min 0,0 UV-I -4,4 C -3,7 C 0,0 km/h (0 Bft)
26.02.2012 23:00 -2,1 C 6,7 C -1,9 C -2,6 C -3,6 C 0,0 C 85 % 87 % 0 % 1027,2 hPa 0,0 l/m 0,0 km/h (0 Bft) O 90 0 min 0,0 UV-I -4,3 C -3,6 C 0,0 km/h (0 Bft)
26.02.2012 23:09 -2,1 C 6,7 C -1,9 C -2,6 C -3,7 C 0,0 C 85 % 87 % 0 % 1027,2 hPa 0,0 l/m 0,0 km/h (0 Bft) N 0 0 min 0,0 UV-I -4,3 C -3,7 C 0,0 km/h (0 Bft)
26.02.2012 23:15 -2,1 C 6,7 C -2,0 C -2,7 C -3,8 C 0,0 C 85 % 87 % 0 % 1027,7 hPa 0,0 l/m 0,0 km/h (0 Bft) SO 135 0 min 0,0 UV-I -4,3 C -3,8 C 0,0 km/h (0 Bft)
26.02.2012 23:20 -2,1 C 6,7 C -1,9 C -2,7 C -3,8 C 0,0 C 85 % 87 % 0 % 1027,7 hPa 0,0 l/m 0,0 km/h (0 Bft) SO 135 0 min 0,0 UV-I -4,3 C -3,8 C 0,0 km/h (0 Bft)
26.02.2012 23:25 -2,3 C 6,7 C -2,1 C -2,8 C -3,8 C 0,0 C 85 % 87 % 0 % 1027,7 hPa 0,0 l/m 0,0 km/h (0 Bft) SO 135 0 min 0,0 UV-I -4,5 C -3,8 C 0,0 km/h (0 Bft)
26.02.2012 23:30 -2,4 C 6,7 C -2,1 C -2,8 C -3,7 C 0,0 C 85 % 87 % 0 % 1027,7 hPa 0,0 l/m 0,0 km/h (0 Bft) SO 135 0 min 0,0 UV-I -4,6 C -3,7 C 0,0 km/h (0 Bft)
26.02.2012 23:35 -2,4 C 6,6 C -2,1 C -2,9 C -3,9 C 0,0 C 85 % 87 % 0 % 1027,6 hPa 0,0 l/m 0,0 km/h (0 Bft) SO 135 0 min 0,0 UV-I -4,6 C -3,9 C 0,0 km/h (0 Bft)
26.02.2012 23:40 -2,5 C 6,6 C -2,1 C -3,0 C -4,0 C 0,0 C 85 % 87 % 0 % 1027,6 hPa 0,0 l/m 0,0 km/h (0 Bft) SO 135 0 min 0,0 UV-I -4,7 C -4,0 C 0,0 km/h (0 Bft)
26.02.2012 23:45 -2,5 C 6,6 C -2,1 C -3,0 C -4,1 C 0,0 C 85 % 87 % 0 % 1027,6 hPa 0,0 l/m 0,0 km/h (0 Bft) SO 135 0 min 0,0 UV-I -4,7 C -4,1 C 0,0 km/h (0 Bft)
26.02.2012 23:50 -2,7 C 6,6 C -2,3 C -3,2 C -4,1 C 0,0 C 85 % 87 % 0 % 1027,6 hPa 0,0 l/m 0,0 km/h (0 Bft) SO 135 0 min 0,0 UV-I -4,9 C -4,1 C 0,0 km/h (0 Bft)
26.02.2012 23:55 -2,5 C 6,6 C -2,3 C -3,0 C -4,1 C 0,0 C 85 % 87 % 0 % 1028,2 hPa 0,0 l/m 0,0 km/h (0 Bft) SO 135 0 min 0,0 UV-I -4,7 C -4,1 C 0,0 km/h (0 Bft)
_ Min-Zeit 23:50 13:30 23:50 23:50 23:45 00:04 15:50 15:35 00:04 07:34 - 00:49 - - - 00:04 23:50 23:45 00:39
Minimum _ -2,7 C 6,6 C -2,3 C -3,2 C -4,1 C 0,0 C 61 % 58 % 0 % 1018,8 hPa - 0,0 km/h (0 Bft) - - - 0,0 UV-I -4,9 C -4,1 C 0,0 km/h (0 Bft)
_ Max-Zeit 15:35 00:39 15:10 15:10 15:10 14:35 11:20 10:14 13:20 23:55 00:59 02:44 - - 16:25 00:04 12:09 15:10 07:39
Maximum _ 7,5 C 7,2 C 10,2 C 11,9 C 11,9 C 4,9 C 92 % 94 % 100 % 1028,2 hPa 0,7 l/m 10,5 km/h
W (2 Bft)
- - 15 min 0,0 UV-I 2,8 C 11,9 C 20,8 km/h
W-SW (4 Bft)
Durchschnitt _ 3,2 C 6,8 C 3,1 C 3,6 C 2,7 C 0,8 C 80 % 85 % 19 % 1022,4 hPa #4,1 l/m 4,2 km/h (1 Bft) W-SW - #3:59 h 0,0 UV-I 0,1 C 1,8 C 5,3 km/h (1 Bft)
2012 www.wetterstation-wechselburg.de